TimeCST,TemperatureF,Dew PointF,Humidity,Sea Level PressureIn,VisibilityMPH,Wind Direction,Wind SpeedMPH,Gust SpeedMPH,PrecipitationIn,Events,Conditions,WindDirDegrees,DateUTC
12:15 AM,31.1,29.1,92,29.67,0.8,NNW,21.9,32.2,N/A,Snow,Light Snow,340,2013-01-30 06:15:00
12:35 AM,30.7,28.6,92,29.69,1.0,NNW,21.9,28.8,N/A,Snow,Snow,330,2013-01-30 06:35:00
12:55 AM,29.7,27.5,92,29.69,0.8,NNW,26.5,33.4,N/A,Snow,Snow,340,2013-01-30 06:55:00
1:15 AM,28.2,26.4,93,29.67,0.5,North,-9999.0,-,N/A,,Overcast,0,2013-01-30 07:15:00
1:35 AM,27.5,25.7,93,29.68,-9999.0,North,-9999.0,-,N/A,,Overcast,0,2013-01-30 07:35:00
1:55 AM,26.6,24.8,93,29.69,-9999.0,NNW,28.8,-,N/A,,Overcast,340,2013-01-30 07:55:00
2:15 AM,26.4,24.6,93,29.70,-9999.0,NNW,23.0,29.9,N/A,,Overcast,340,2013-01-30 08:15:00
2:35 AM,26.2,24.3,92,29.70,-9999.0,NNW,25.3,29.9,N/A,,Overcast,330,2013-01-30 08:35:00
2:55 AM,25.7,23.7,92,29.72,-9999.0,NNW,21.9,34.5,N/A,,Overcast,340,2013-01-30 08:55:00
3:15 AM,25.3,23.0,91,29.73,-9999.0,NNW,24.2,33.4,N/A,,Overcast,330,2013-01-30 09:15:00
3:35 AM,24.8,22.5,91,29.74,-9999.0,NNW,23.0,29.9,N/A,,Overcast,330,2013-01-30 09:35:00
3:55 AM,24.8,22.1,89,29.74,-9999.0,NNW,24.2,31.1,N/A,,Overcast,330,2013-01-30 09:55:00
4:15 AM,24.6,22.1,90,29.74,-9999.0,NNW,25.3,33.4,N/A,,Unknown,330,2013-01-30 10:15:00
4:35 AM,24.6,22.1,90,29.74,-9999.0,NNW,21.9,29.9,N/A,,Overcast,330,2013-01-30 10:35:00
4:55 AM,23.9,21.4,90,29.74,-9999.0,NNW,24.2,32.2,N/A,,Overcast,330,2013-01-30 10:55:00
5:15 AM,23.9,20.7,87,29.75,-9999.0,NNW,26.5,39.1,N/A,,Overcast,330,2013-01-30 11:15:00
5:35 AM,23.7,20.3,87,29.75,-9999.0,NNW,27.6,36.8,N/A,,Overcast,330,2013-01-30 11:35:00
5:55 AM,23.7,19.4,84,29.76,-9999.0,NNW,24.2,35.7,N/A,,Overcast,330,2013-01-30 11:55:00
6:15 AM,23.7,19.9,85,29.76,-9999.0,NNW,29.9,38.0,N/A,,Overcast,340,2013-01-30 12:15:00
6:35 AM,23.5,19.9,86,29.77,-9999.0,NNW,26.5,35.7,N/A,,Overcast,340,2013-01-30 12:35:00
6:55 AM,23.4,18.9,83,29.77,-9999.0,NNW,27.6,36.8,N/A,,Unknown,340,2013-01-30 12:55:00
7:15 AM,23.2,18.5,82,29.78,-9999.0,NNW,26.5,35.7,N/A,,Overcast,340,2013-01-30 13:15:00
7:35 AM,23.4,18.5,82,29.79,-9999.0,NNW,26.5,33.4,N/A,,Overcast,330,2013-01-30 13:35:00
7:55 AM,23.0,17.4,79,29.80,-9999.0,NNW,27.6,35.7,N/A,,Overcast,330,2013-01-30 13:55:00
8:15 AM,22.6,16.7,78,29.82,-9999.0,North,26.5,36.8,N/A,,Overcast,350,2013-01-30 14:15:00
8:35 AM,23.0,16.5,76,29.83,-9999.0,NNW,25.3,31.1,N/A,,Overcast,340,2013-01-30 14:35:00
8:55 AM,23.2,16.9,77,29.83,4.0,NNW,20.7,27.6,N/A,Snow,Light Snow,340,2013-01-30 14:55:00
9:15 AM,22.8,17.6,80,29.83,2.0,NNW,19.6,32.2,N/A,Snow,Light Snow,330,2013-01-30 15:15:00
9:35 AM,22.8,17.6,80,29.83,2.5,NNW,23.0,27.6,N/A,Snow,Light Snow,330,2013-01-30 15:35:00
9:55 AM,22.1,16.2,78,29.84,1.2,NNW,24.2,32.2,N/A,Snow,Light Snow,340,2013-01-30 15:55:00
10:15 AM,22.6,14.9,72,29.85,4.0,NNW,18.4,29.9,N/A,,Haze,330,2013-01-30 16:15:00
10:35 AM,23.2,15.1,71,29.85,5.0,NNW,20.7,28.8,N/A,,Haze,330,2013-01-30 16:35:00
10:55 AM,23.4,16.0,73,29.85,3.0,NNW,20.7,27.6,N/A,Snow,Light Snow,330,2013-01-30 16:55:00
11:15 AM,23.9,15.4,70,29.85,10.0,NNW,20.7,27.6,N/A,,Overcast,330,2013-01-30 17:15:00
11:35 AM,24.3,14.9,68,29.85,10.0,NNW,23.0,31.1,N/A,,Overcast,330,2013-01-30 17:35:00
11:55 AM,24.3,14.4,66,29.85,10.0,NNW,18.4,29.9,N/A,,Overcast,330,2013-01-30 17:55:00
12:15 PM,24.4,14.0,65,29.86,10.0,NW,23.0,29.9,N/A,,Overcast,320,2013-01-30 18:15:00
12:35 PM,24.6,14.0,64,29.85,10.0,NW,21.9,27.6,N/A,,Overcast,320,2013-01-30 18:35:00
12:55 PM,24.4,12.9,62,29.85,10.0,NNW,19.6,31.1,N/A,,Overcast,330,2013-01-30 18:55:00
1:15 PM,23.9,16.3,73,29.85,10.0,NW,19.6,25.3,N/A,Snow,Light Snow,310,2013-01-30 19:15:00
1:35 PM,24.1,15.1,69,29.84,10.0,NW,19.6,24.2,N/A,,Overcast,320,2013-01-30 19:35:00
1:55 PM,24.6,14.7,66,29.84,10.0,NW,19.6,27.6,N/A,,Overcast,320,2013-01-30 19:55:00
2:15 PM,24.4,14.0,65,29.83,10.0,NW,18.4,25.3,N/A,,Overcast,320,2013-01-30 20:15:00
2:35 PM,24.4,14.2,65,29.83,10.0,NW,20.7,-,N/A,,Overcast,310,2013-01-30 20:35:00
2:55 PM,24.6,13.6,63,29.83,10.0,NNW,13.8,20.7,N/A,,Overcast,330,2013-01-30 20:55:00
3:15 PM,24.6,14.0,64,29.84,10.0,NW,16.1,-,N/A,,Overcast,320,2013-01-30 21:15:00
3:35 PM,24.6,13.8,64,29.84,10.0,NW,16.1,-,N/A,,Overcast,320,2013-01-30 21:35:00
3:55 PM,24.6,14.0,64,29.85,10.0,NW,16.1,23.0,N/A,,Overcast,310,2013-01-30 21:55:00
4:15 PM,24.8,13.8,63,29.85,10.0,WNW,15.0,21.9,N/A,,Overcast,300,2013-01-30 22:15:00
4:35 PM,24.6,14.4,65,29.85,10.0,WNW,12.7,20.7,N/A,,Overcast,300,2013-01-30 22:35:00
4:55 PM,24.1,14.2,66,29.86,10.0,WNW,12.7,-,N/A,,Overcast,300,2013-01-30 22:55:00
5:15 PM,23.7,13.6,65,29.86,10.0,WNW,16.1,19.6,N/A,,Mostly Cloudy,300,2013-01-30 23:15:00
5:35 PM,23.4,13.1,65,29.87,10.0,WNW,11.5,-,N/A,,Mostly Cloudy,300,2013-01-30 23:35:00
5:55 PM,22.3,12.9,67,29.87,10.0,WNW,9.2,-,N/A,,Scattered Clouds,300,2013-01-30 23:55:00
6:15 PM,20.5,12.9,73,29.87,10.0,WNW,6.9,-,N/A,,Clear,290,2013-01-31 00:15:00
6:35 PM,19.6,12.9,75,29.88,10.0,West,5.8,-,N/A,,Clear,280,2013-01-31 00:35:00
6:55 PM,19.0,12.2,75,29.87,10.0,NW,5.8,-,N/A,,Clear,310,2013-01-31 00:55:00
7:15 PM,18.3,11.8,76,29.88,10.0,NW,5.8,-,N/A,,Clear,310,2013-01-31 01:15:00
7:35 PM,17.6,11.8,78,29.88,10.0,NW,5.8,-,N/A,,Clear,310,2013-01-31 01:35:00
7:55 PM,17.1,11.3,78,29.89,10.0,NW,5.8,-,N/A,,Clear,310,2013-01-31 01:55:00
8:15 PM,17.6,12.4,80,29.89,10.0,NW,4.6,-,N/A,,Mostly Cloudy,320,2013-01-31 02:15:00
8:35 PM,18.3,12.4,78,29.89,10.0,NNW,4.6,-,N/A,,Mostly Cloudy,330,2013-01-31 02:35:00
8:55 PM,16.7,11.7,81,29.89,10.0,NNW,5.8,-,N/A,,Scattered Clouds,330,2013-01-31 02:55:00
9:15 PM,16.7,11.5,80,29.89,10.0,NNW,5.8,-,N/A,,Clear,340,2013-01-31 03:15:00
9:35 PM,15.4,11.1,83,29.89,10.0,NNW,5.8,-,N/A,,Clear,340,2013-01-31 03:35:00
9:55 PM,15.6,11.3,83,29.90,10.0,North,5.8,-,N/A,,Clear,350,2013-01-31 03:55:00
10:15 PM,14.4,10.4,84,29.90,10.0,North,4.6,-,N/A,,Clear,350,2013-01-31 04:15:00
10:35 PM,14.0,9.7,83,29.92,10.0,WNW,3.5,-,N/A,,Scattered Clouds,290,2013-01-31 04:35:00
10:55 PM,16.5,11.7,81,29.92,10.0,NNW,10.4,-,N/A,,Overcast,330,2013-01-31 04:55:00
11:15 PM,16.7,11.1,79,29.92,10.0,NNW,11.5,-,N/A,,Overcast,340,2013-01-31 05:15:00
11:35 PM,16.7,10.9,78,29.92,10.0,NNW,10.4,-,N/A,,Overcast,330,2013-01-31 05:35:00
11:55 PM,16.7,10.0,75,29.93,10.0,NW,8.1,-,N/A,,Overcast,320,2013-01-31 05:55:00